Location: Berkeley
(37.8716°N, 122.2727°W)
Time: 05:04:13
(UTC-07:00)

Envisat - Pass Details

Date: 20 February 2019
Orbit: 764 x 766 km, 98.1° (Epoch: 19 October)

Event Time Altitude Azimuth Distance (km) Brightness Sun altitude
Rises 19:09:18 0° 176° (S) 3,215 6.2 -15.7°
Reaches altitude 10° 19:11:37 10° 180° (S) 2,293 5.5 -16.1°
Maximum altitude 19:16:36 59° 259° (W) 881 3.6 -17.1°
Drops below altitude 10° 19:21:37 10° 339° (NNW) 2,307 5.7 -18.1°
Sets 19:23:58 0° 344° (NNW) 3,237 6.5 -18.6°
